Grand Prairie, TX

6:23 AM CST on January 17, 2017 (GMT -0600)
Grand Prairie Municipal

Weather History for KGPM - March, 2014

Change the Weather History Date:

Saturday, March 22, 2014

  Actual Average (KRBD) Record (KRBD)
Temperature  
Mean Temperature 57 °F -  
Max Temperature 64 °F 65 °F 81 °F (2011)
Min Temperature 50 °F 47 °F 30 °F (2002)
Degree Days  
Heating Degree Days 8    
Growing Degree Days 7 (Base 50)    
Moisture  
Dew Point 50 °F    
Average Humidity 73    
Maximum Humidity 94    
Minimum Humidity 45    
Precipitation  
Precipitation 0.00 in - - ()
Sea Level Pressure  
Sea Level Pressure 30.01 in    
Wind  
Wind Speed 7 mph (North)    
Max Wind Speed 17 mph    
Max Gust Speed 22 mph    
Visibility 10 miles    
Events      
Averages and records for this station are not official NWS values.
T = Trace of Precipitation, MM = Missing Value Source: NWS Daily Summary

Daily Weather History Graph

Daily Weather History Graph

Search for Another Location

Airport or City:

Trip Planner

Search our weather history database for the weather conditions in past years. The results will help you decide how hot, cold, wet, or windy it might be!

Date:

Astronomy

Mar. 22, 2014 Rise Set
Actual Time 7:29 AM CDT 7:41 PM CDT
Civil Twilight 7:04 AM CDT 8:05 PM CDT
Nautical Twilight 6:35 AM CDT 8:34 PM CDT
Astronomical Twilight 6:06 AM CDT 9:03 PM CDT
Moon 12:46 AM CDT (3/22) 11:29 AM CDT (3/22)
Length of Visible Light 13h 01m
Length of Day
12h 11m
Waning Gibbous, 65% of the Moon is Illuminated
Mar 22
Waning Gibbous
Mar 23
Last Quarter
Mar 30
New
Apr 7
First Quarter
Apr 15
Full

Hourly Weather History & Observations

Time (CDT) Temp. Dew Point Humidity Pressure Visibility Wind Dir Wind Speed Gust Speed Precip Events Conditions
12:15 AM 64.4 °F 55.4 °F 73% 29.93 in 10.0 mi SSE 6.9 mph - N/A   Clear
12:35 AM 64.4 °F 55.4 °F 73% 29.93 in 10.0 mi South 5.8 mph - N/A   Clear
12:55 AM 64.4 °F 55.4 °F 73% 29.93 in 10.0 mi South 5.8 mph - N/A   Clear
1:15 AM 64.4 °F 55.4 °F 73% 29.94 in 10.0 mi South 6.9 mph - N/A   Clear
1:35 AM 64.4 °F 55.4 °F 73% 29.94 in 10.0 mi South 8.1 mph - N/A   Clear
1:55 AM 64.4 °F 55.4 °F 73% 29.93 in 10.0 mi South 6.9 mph - N/A   Clear
2:15 AM 64.4 °F 55.4 °F 73% 29.93 in 10.0 mi South 10.4 mph - N/A   Clear
2:35 AM 62.6 °F 55.4 °F 77% 29.93 in 10.0 mi South 6.9 mph - N/A   Clear
2:55 AM 62.6 °F 55.4 °F 77% 29.93 in 10.0 mi South 6.9 mph - N/A   Clear
3:15 AM 62.6 °F 55.4 °F 77% 29.95 in 10.0 mi NNW 5.8 mph - N/A   Scattered Clouds
3:35 AM 62.6 °F 55.4 °F 77% 29.95 in 10.0 mi Calm Calm - N/A   Mostly Cloudy
3:55 AM 62.6 °F 55.4 °F 77% 29.95 in 10.0 mi Calm Calm - N/A   Overcast
4:15 AM 62.6 °F 55.4 °F 77% 29.94 in 10.0 mi Calm Calm - N/A   Overcast
4:35 AM 62.6 °F 55.4 °F 77% 29.95 in 10.0 mi Calm Calm - N/A   Overcast
4:55 AM 62.6 °F 55.4 °F 77% 29.94 in 10.0 mi ESE 3.5 mph - N/A   Overcast
5:15 AM 62.6 °F 55.4 °F 77% 29.95 in 10.0 mi Calm Calm - N/A   Overcast
5:35 AM 62.6 °F 55.4 °F 77% 29.95 in 10.0 mi Calm Calm - N/A   Overcast
5:55 AM 62.6 °F 57.2 °F 82% 29.96 in 10.0 mi Calm Calm - N/A   Overcast
6:15 AM 62.6 °F 57.2 °F 82% 29.97 in 10.0 mi Calm Calm - N/A   Overcast
6:35 AM 62.6 °F 59.0 °F 88% 29.98 in 7.0 mi Calm Calm - N/A   Overcast
6:50 AM 64.4 °F 59.0 °F 83% 29.98 in 10.5 mi Calm Calm - N/A   Overcast
7:50 AM 62.6 °F 60.8 °F 94% 30.00 in 3.2 mi ENE 4.6 mph - N/A   Overcast
8:50 AM 55.4 °F 53.6 °F 94% 30.04 in 5.0 mi NNE 9.2 mph - N/A   Overcast
9:50 AM 59.0 °F 51.8 °F 77% 30.05 in 10.0 mi NE 9.2 mph - N/A   Overcast
10:50 AM 60.8 °F 51.8 °F 72% 30.06 in 10.0 mi NNE 5.8 mph - N/A   Overcast
11:50 AM 62.6 °F 48.2 °F 59% 30.06 in 10.0 mi North 8.1 mph - N/A   Overcast
12:50 PM 62.6 °F 42.8 °F 48% 30.06 in 10.0 mi North 10.4 mph - N/A   Mostly Cloudy
1:50 PM 62.6 °F 41.0 °F 45% 30.04 in 10.0 mi NNW 10.4 mph - N/A   Overcast
2:50 PM 60.8 °F 39.2 °F 45% 30.03 in 10.0 mi NNW 11.5 mph 16.1 mph N/A   Overcast
3:50 PM 60.8 °F 39.2 °F 45% 30.02 in 10.0 mi NNW 12.7 mph - N/A   Overcast
4:50 PM 59.0 °F 39.2 °F 48% 30.03 in 10.0 mi North 10.4 mph 16.1 mph N/A   Overcast
6:50 PM 55.4 °F 41.0 °F 58% 30.04 in 10.0 mi North 13.8 mph 17.3 mph N/A   Overcast
7:50 PM 53.6 °F 42.8 °F 67% 30.06 in 10.0 mi North 10.4 mph 21.9 mph N/A   Overcast
8:15 PM 51.8 °F 42.8 °F 71% 30.07 in 10.0 mi North 17.3 mph - N/A   Mostly Cloudy
8:35 PM 50.0 °F 42.8 °F 76% 30.06 in 10.0 mi North 12.7 mph 21.9 mph N/A   Overcast
8:55 PM 50.0 °F 44.6 °F 82% 30.08 in 10.0 mi North 10.4 mph 16.1 mph N/A   Overcast
9:15 PM 50.0 °F 44.6 °F 82% 30.08 in 10.0 mi North 13.8 mph - N/A   Overcast
9:35 PM 50.0 °F 44.6 °F 82% 30.09 in 10.0 mi North 11.5 mph - N/A   Overcast
9:55 PM 50.0 °F 44.6 °F 82% 30.11 in 10.0 mi North 9.2 mph - N/A   Overcast
10:15 PM 51.8 °F 44.6 °F 76% 30.11 in 10.0 mi North 9.2 mph - N/A   Overcast
10:35 PM 51.8 °F 44.6 °F 76% 30.12 in 10.0 mi NNW 8.1 mph - N/A   Overcast
10:55 PM 51.8 °F 44.6 °F 76% 30.12 in 10.0 mi North 11.5 mph - N/A   Overcast
11:15 PM 51.8 °F 44.6 °F 76% 30.14 in 10.0 mi North 6.9 mph - N/A   Overcast
11:35 PM 51.8 °F 44.6 °F 76% 30.13 in 10.0 mi North 13.8 mph - N/A   Overcast
11:55 PM 51.8 °F 44.6 °F 76% 30.13 in 10.0 mi North 11.5 mph 19.6 mph N/A   Overcast